Simultaneous Nadir Overpasses (SNOs) Predictions

Prediction of SNOs between NOAA-19 and TERRA Satellite Orbit:

Table of predicted SNOs for the next 14.0 days since TLE Epoch: 7/13/2019
Index Date (NOAA-19) Time (NOAA-19) Lat,Lon (NOAA-19) SZA (NOAA-19 ) Date (TERRA) Time (TERRA) Lat,Lon (TERRA) SZA (TERRA ) Distance(km) Time Diff (sec)
1 07/15/2019 02:15:47 -78.55, -11.28 122.25 07/15/2019 02:16:23 -78.56, -11.40 122.24 2.92 36
2 07/15/2019 03:06:44 78.54, 156.05 57.76 07/15/2019 03:05:49 78.55, 156.19 57.76 3.36 55
3 07/17/2019 07:49:09 78.57, 85.35 58.13 07/17/2019 07:50:05 78.59, 85.32 58.16 2.33 56
4 07/17/2019 08:40:11 -78.53,-107.15 121.89 07/17/2019 08:39:33 -78.56,-107.19 121.88 3.57 38
5 07/19/2019 13:22:36 -78.57,-177.97 121.48 07/19/2019 13:23:49 -78.60,-178.05 121.44 3.39 73
6 07/19/2019 14:13:34 78.57, -10.68 58.53 07/19/2019 14:13:16 78.54, -10.70 58.50 2.70 18
7 07/21/2019 19:47:00 -78.56, 86.11 121.06 07/21/2019 19:47:00 -78.56, 85.94 121.07 3.80 0
8 07/24/2019 01:20:23 78.57,-177.22 59.40 07/24/2019 01:20:42 78.59,-177.35 59.41 3.26 19
9 07/24/2019 02:11:24 -78.55, -9.82 120.60 07/24/2019 02:10:10 -78.56, -9.84 120.62 1.61 74
10 07/26/2019 06:53:49 -78.60, -80.71 120.11 07/26/2019 06:54:26 -78.61, -80.68 120.09 0.79 37




NCC Satellite Simultaneous Nadir Overpasses (SNOs) Prediction Service
